Погода в Субанге

Малайзия     3°09′32″N   101°31′10″E
темп.,
°C
ветер,
м/с
пор.,
м/с
влажн.,
%
обл.,
%
осадки,
мм/ч
давл.,
гПа
погр.,
м
23 сентября, чт
чт2323:00+26ссв0080100 0.0 101011
02:00+24ссв118789 0.9 100912
05:00+24в018797 0.1 100811
08:00+25ююв138685 0.1 1010115
11:00+31ю12609 0.0 10111095
14:00+32юз335940 0.6 10081530
17:00+31зюз32599 0.3 10061058
20:00+26ю008699 0.6 100811
24 сентября, пт
пт2423:00+26в0087100 0.2 101111
02:00+24сз119693 1.9 101015
05:00+23св1197100 1.3 100914
08:00+25св019378 3.1 101150
11:00+27юз248442 6.1 1012564
14:00+27ю2576100 10.8 1010587
17:00+27юв2369100 0.3 1008775
20:00+24ююв1185100 0.3 100913
25 сентября, сб
сб2523:00+23ююв118781 0.0 101112
02:00+23вюв118888 0.0 101012
05:00+22ссв0089100 0.0 100911
08:00+24св018754 0.0 101050
11:00+31ююз0061100 0.0 1011882
14:00+33зюз225138 0.0 10071887
17:00+30з3367100 0.3 1006564
20:00+25юз119094 1.8 100812
26 сентября, вс
вс2623:00+23всв0197100 3.4 101016
02:00+24всв1195100 3.8 100812
05:00+24св009498 0.1 100712
08:00+25вюв0192100 0.3 100946
11:00+29юз117360 2.1 1010734
14:00+30юз1174100 5.3 1007882
17:00+26юз119098 6.3 100626
20:00+25всв0094100 7.0 100711
27 сентября, пн
пн2723:00+25св119357 0.6 100911
02:00+24св119494 0.7 100813
05:00+23ссв1194100 0.1 100711
08:00+24в019298 0.1 100949
11:00+30ю117199 0.6 1009734
14:00+33зюз135494 1.3 10061698
17:00+27з238783 2.3 1005151
20:00+25ю009212 3.6 100711